Find Starlink 5804

NORAD ID: 55788 Int'l Des: 2023-028 Owner: SPXS Country: US Constellation: starlink operational
LEOCIRCULAR

Live Position

Loading 3D Globe...

About Starlink 5804

Description loading...

Upcoming Passes

Passes for default location (London). Set your location on the main map for personalized predictions.

Altitude History

Loading altitude history...

Two-Line Element Set

1 55788U 23028AZ 26106.74315913 .00000260 00000-0 29548-4 0 9996
2 55788 69.9989 108.6163 0003401 271.1213 88.9556 14.98333199172725
Epoch: Apr 16, 2026 • Age: 17 hours

Current Status

Altitude 574.5 km
Velocity 7.57 km/s
Sub-Earth Point 0.14°N, 78.65°W
Launch Date Mar 3, 2023
Age 3.1 years
Type internet

Technical Details

Classification Payload
Mass 305.00 kg
Dry Mass 290.00 kg
Total Mass 305.00 kg
Length 0.20 m
Diameter 2.80 m
Span 9.00 m
Shape Box + pan
Manufacturer SPXS
Bus Type Starlink
Phase Status In Orbit
Owner/State SPXS/US

Most Searched